Weerstation Grootegast  Weerstation Grootegast


15 daagse weersverwachting Ålesund (NO)

  • Overzicht
  • Per uur
  • 15 dagen
  • Extra
  • Vergelijk
  • Kaarten
  • Dagkaart
  • Meer »
  • Info
  • Statistieken
  • Directe link
    Temp 6h Neerslag Wind  
 07:05     19:56    Daglengte: 12:51 Morgen
02:00
10°
32.5 mm
13
08:00
24.4 mm
10
14:00
10°
27.3 mm
7
20:00
31.4 mm
6
 07:08     19:53    Daglengte: 12:45 Dinsdag 17 Sep
02:00
40.3 mm
7
08:00
27.2 mm
4
14:00
10°
45.5 mm
7
20:00
10°
51.1 mm
9
 07:11     19:49    Daglengte: 12:38 Woensdag 18 Sep
02:00
27.2 mm
3
08:00
54.5 mm
6
14:00
10°
79.1 mm
5
Locatie info
Region: Møre og Romsdal
Latitude: 62.4715°N
Longitude: 6.1729°E
3 masl
Postcode: 6003
Temp/Neerslag /Baro Onweer/Dauwpunt
    Temp Baro 1h Neerslag Dauwpunt Wind UV Bewolking  
 07:03     19:59    Daglengte: 12:56 Vandaag
21:00
11°
1000.3 hPa 9.5 mm
49%
7.6°
15
Windvlaag: 19.9 m/s
91% warningclass
22:00
11°
1001.5 hPa 6.1 mm
82%
7.1°
15
Windvlaag: 19.3 m/s
91% warningclass
23:00
11°
1002.8 hPa 4.1 mm
82%
6.9°
15
Windvlaag: 19.1 m/s
91% warningclass
 07:05     19:56    Daglengte: 12:51 Morgen
00:00
10°
1003.9 hPa 4.2 mm
82%
6.8°
14
Windvlaag: 18.8 m/s
91% warningclass
01:00
10°
1004.8 hPa 4.4 mm
82%
6.8°
14
Windvlaag: 18.3 m/s
90% warningclass
02:00
10°
1005.5 hPa 4.2 mm
82%
5.9°
13
Windvlaag: 16.3 m/s
83%
03:00
10°
Voelt als: 5.7°
1006.0 hPa 5.6 mm
82%
5.6°
12
Windvlaag: 14.7 m/s
83%
04:00
10°
Voelt als: 5.3°
1006.2 hPa 4.1 mm
82%
5.9°
13
Windvlaag: 15.3 m/s
79%
05:00
10°
Voelt als: 5.3°
1006.6 hPa 4.0 mm
82%
5.2°
12
Windvlaag: 14.9 m/s
69%
06:00
Voelt als: 4.8°
1006.9 hPa 4.8 mm
82%
5.7°
12
Windvlaag: 15.4 m/s
81%
07:00
Voelt als: 5.1°
1007.3 hPa 5.8 mm
82%
4.2°
11
Windvlaag: 14.6 m/s
69%
08:00
Voelt als: 5.2°
1007.7 hPa
82%
3.8°
10
Windvlaag: 12.8 m/s
28%
09:00
10°
Voelt als: 5.7°
1007.8 hPa 5.5 mm
82%
3.3°
10
Windvlaag: 12.3 m/s
44%
10:00
10°
Voelt als: 6.1°
1007.8 hPa 5.3 mm
79%
3.8°
8
Windvlaag: 11.8 m/s
40%
11:00
10°
Voelt als: 6.4°
1007.5 hPa 5.5 mm
69%
3.9°
7
Windvlaag: 10.2 m/s
52%
12:00
10°
Voelt als: 6.7°
1007.1 hPa 5.4 mm
63%
6.0°
7
Windvlaag: 9.6 m/s
67%
13:00
10°
Voelt als: 7.0°
1006.4 hPa
76%
6.4°
7
Windvlaag: 9.5 m/s
51%
14:00
10°
1006.0 hPa 5.5 mm
82%
7.0°
7
Windvlaag: 9.6 m/s
63%
15:00
10°
Voelt als: 6.5°
1005.7 hPa 4.3 mm
82%
7.3°
8
Windvlaag: 10.8 m/s
85%
16:00
10°
Voelt als: 6.5°
1005.5 hPa 5.2 mm
82%
7.4°
7
Windvlaag: 10.8 m/s
83%
17:00
10°
Voelt als: 6.7°
1005.3 hPa 4.3 mm
82%
5.6°
8
Windvlaag: 10.5 m/s
75%
18:00
10°
Voelt als: 6.2°
1005.5 hPa 5.0 mm
82%
5.7°
9
Windvlaag: 11.4 m/s
76%
19:00
10°
Voelt als: 6.0°
1005.6 hPa 7.2 mm
82%
4.9°
9
Windvlaag: 12.2 m/s
75%
20:00
Voelt als: 5.6°
1005.4 hPa 5.5 mm
82%
6.0°
6
Windvlaag: 13.8 m/s
65%
21:00
Voelt als: 5.4°
1005.3 hPa 5.5 mm
82%
6.1°
6
Windvlaag: 8.7 m/s
63% warningclass
22:00
Voelt als: 4.5°
1005.2 hPa 5.7 mm
82%
5.1°
7
Windvlaag: 12.2 m/s
84%
23:00
Voelt als: 4.4°
1005.0 hPa 6.2 mm
82%
5.2°
7
Windvlaag: 11.9 m/s
77%
 07:08     19:53    Daglengte: 12:45 Dinsdag 17 Sep
00:00
Voelt als: 4.8°
1005.0 hPa 5.8 mm
82%
3.7°
8
Windvlaag: 11 m/s
81%
01:00
Voelt als: 4.8°
1005.0 hPa 8.5 mm
82%
3.5°
7
Windvlaag: 10.7 m/s
75%
02:00
Voelt als: 4.8°
1004.9 hPa 8.6 mm
82%
3.5°
7
Windvlaag: 9.8 m/s
67%
03:00
Voelt als: 4.1°
1004.6 hPa 9.0 mm
79%
5.1°
6
Windvlaag: 8.9 m/s
39%
04:00
Voelt als: 4.2°
1004.5 hPa 8.9 mm
77%
5.0°
6
Windvlaag: 9.2 m/s
42%
05:00
Voelt als: 4.4°
1004.6 hPa
76%
4.7°
5
Windvlaag: 8.2 m/s
47%
06:00
Voelt als: 4.0°
1004.8 hPa
76%
4.5°
6
Windvlaag: 8.1 m/s
44%
07:00
Voelt als: 4.5°
1005.3 hPa
75%
4.6°
5
Windvlaag: 7.8 m/s
47%
08:00
Voelt als: 4.9°
1005.8 hPa 9.2 mm
82%
5.2°
4
Windvlaag: 6.9 m/s
27%
09:00
Voelt als: 4.7°
1006.5 hPa
72%
5.3°
7
Windvlaag: 9.3 m/s
62%
10:00
Voelt als: 5.8°
1007.1 hPa 9.9 mm
67%
6.1°
5
Windvlaag: 9.4 m/s
65%
11:00
Voelt als: 5.3°
1008.2 hPa 7.6 mm
77%
6.0°
6
Windvlaag: 9 m/s
79%
12:00
Voelt als: 5.1°
1008.8 hPa 9.3 mm
82%
6.0°
7
Windvlaag: 9.7 m/s
79%
13:00
Voelt als: 6.8°
1009.7 hPa 7.6 mm
82%
6.2°
5
Windvlaag: 12.4 m/s
81%
14:00
10°
1010.6 hPa 11.1 mm
82%
5.7°
7
Windvlaag: 9.1 m/s
81%
15:00
10°
Voelt als: 7.1°
1011.2 hPa 8.7 mm
82%
6.5°
6
Windvlaag: 5.8 m/s
83%
16:00
10°
1011.9 hPa 8.1 mm
82%
6.6°
6
Windvlaag: 2.2 m/s
85%
17:00
10°
1012.2 hPa 7.8 mm
100%
6.6°
9
Windvlaag: 9.2 m/s
98%
18:00
10°
1012.7 hPa 11.4 mm
100%
6.3°
9
Windvlaag: 10.3 m/s
97%
19:00
10°
Voelt als: 6.6°
1013.0 hPa 7.7 mm
100%
7.9°
7
Windvlaag: 10.4 m/s
93%
20:00
10°
1013.6 hPa 7.4 mm
100%
6.2°
9
Windvlaag: 9.7 m/s
87%
21:00
10°
1014.2 hPa
100%
5.5°
8
Windvlaag: 9.3 m/s
74%
22:00
10°
Voelt als: 7.0°
1014.7 hPa
100%
5.2°
6
Windvlaag: 8.5 m/s
72%
23:00
10°
Voelt als: 7.2°
1015.2 hPa
100%
6.1°
5
Windvlaag: 7.6 m/s
80%
 07:11     19:49    Daglengte: 12:38 Woensdag 18 Sep
00:00
Voelt als: 6.1°
1015.5 hPa 10.7 mm
100%
7.7°
7
Windvlaag: 8.9 m/s
88%
01:00
Voelt als: 6.5°
1016.0 hPa 8.3 mm
100%
7.0°
5
Windvlaag: 9.1 m/s
98%
02:00
Voelt als: 7.4°
1016.4 hPa 8.2 mm
100%
6.6°
3
Windvlaag: 7.6 m/s
97%
03:00
10°
Voelt als: 7.0°
1016.9 hPa 10.9 mm
100%
5.0°
5
Windvlaag: 7.4 m/s
81%
04:00
10°
Voelt als: 6.9°
1017.4 hPa 10.6 mm
100%
4.4°
6
Windvlaag: 7 m/s
75%
05:00
Voelt als: 6.6°
1017.9 hPa 11.2 mm
100%
4.3°
6
Windvlaag: 6.3 m/s
79%
06:00
Voelt als: 6.4°
1018.2 hPa 11.0 mm
100%
4.7°
6
Windvlaag: 6.2 m/s
58%
07:00
Voelt als: 6.2°
1018.6 hPa
100%
4.9°
7
Windvlaag: 7.2 m/s
62%
08:00
Voelt als: 6.4°
1019.1 hPa 10.8 mm
100%
4.1°
6
Windvlaag: 8.1 m/s
66%
09:00
Voelt als: 6.5°
1019.5 hPa 10.9 mm
100%
4.7°
6
Windvlaag: -3.9 m/s
75%
10:00
Voelt als: 6.5°
1020.0 hPa 10.9 mm
100%
5.3°
6
Windvlaag: -3.9 m/s
80%
11:00
10°
Voelt als: 6.8°
1020.4 hPa 10.8 mm
100%
5.7°
6
Windvlaag: -3.2 m/s
77%
12:00
10°
Voelt als: 7.0°
1020.7 hPa 17.8 mm
100%
6.4°
5
Windvlaag: -2.9 m/s
69%
13:00
10°
Voelt als: 7.2°
1021.0 hPa 17.9 mm
100%
7.0°
5
Windvlaag: -2.8 m/s
60%
14:00
10°
Voelt als: 7.4°
1021.3 hPa 10.9 mm
100%
7.4°
5
Windvlaag: 0.2 m/s
56%
15:00
10°
Voelt als: 7.4°
1021.5 hPa 18.2 mm
100%
7.3°
4
Windvlaag: 7.6 m/s
77%
16:00
Voelt als: 7.1°
1021.7 hPa 18.4 mm
100%
7.4°
4
Windvlaag: 7.8 m/s
81%
17:00
Voelt als: 7.1°
1022.0 hPa 18.8 mm
100%
7.0°
4
Windvlaag: 7.5 m/s
76%
18:00
Voelt als: 7.0°
1022.2 hPa 18.9 mm
100%
6.8°
4
Windvlaag: 8.9 m/s
69%
19:00
Voelt als: 6.8°
1022.5 hPa 18.9 mm
100%
6.7°
3
Windvlaag: 7.4 m/s
69%
20:00
Voelt als: 6.7°
1022.8 hPa 19.1 mm
100%
6.6°
3
Windvlaag: 1.1 m/s
69%
Temp/Neerslag /Baro Onweer/Dauwpunt
    Temp Baro Neerslag Dauwpunt Wind Bewolking  
 07:03     19:59    Daglengte: 12:56 Vandaag
23:00
11°
1002.8 hPa 19.7 mm 6.9°
15
91% warningclass
 07:05     19:56    Daglengte: 12:51 Morgen
02:00
10°
1005.5 hPa 12.8 mm 5.9°
13
83%
05:00
10°
Voelt als: 5.3°
1006.6 hPa 13.8 mm 5.2°
12
69%
08:00
Voelt als: 5.2°
1007.7 hPa 10.6 mm 3.8°
10
28%
11:00
10°
Voelt als: 6.4°
1007.5 hPa 16.3 mm 3.9°
7
52%
14:00
10°
1006.0 hPa 11.0 mm 7.0°
7
63%
17:00
10°
Voelt als: 6.7°
1005.3 hPa 13.8 mm 5.6°
8
75%
20:00
Voelt als: 5.6°
1005.4 hPa 17.6 mm 6.0°
6
65%
23:00
Voelt als: 4.4°
1005.0 hPa 17.4 mm 5.2°
7
77%
 07:08     19:53    Daglengte: 12:45 Dinsdag 17 Sep
02:00
Voelt als: 4.8°
1004.9 hPa 22.9 mm 3.5°
7
67%
05:00
Voelt als: 4.4°
1004.6 hPa 18.0 mm 4.7°
5
47%
08:00
Voelt als: 4.9°
1005.8 hPa 9.2 mm 5.2°
4
27%
11:00
Voelt als: 5.3°
1008.2 hPa 17.5 mm 6.0°
6
79%
14:00
10°
1010.6 hPa 28.0 mm 5.7°
7
81%
17:00
10°
1012.2 hPa 24.5 mm 6.6°
9
98%
20:00
10°
1013.6 hPa 26.5 mm 6.2°
9
87%
23:00
10°
Voelt als: 7.2°
1015.2 hPa   6.1°
5
80%
 07:11     19:49    Daglengte: 12:38 Woensdag 18 Sep
02:00
Voelt als: 7.4°
1016.4 hPa 27.2 mm 6.6°
3
97%
05:00
Voelt als: 6.6°
1017.9 hPa 32.7 mm 4.3°
6
79%
08:00
Voelt als: 6.4°
1019.1 hPa 21.8 mm 4.1°
6
66%
11:00
10°
Voelt als: 6.8°
1020.4 hPa 32.7 mm 5.7°
6
77%
14:00
10°
Voelt als: 7.4°
1021.3 hPa 46.5 mm 7.4°
5
56%
17:00
Voelt als: 7.1°
1022.0 hPa 55.3 mm 7.0°
4
76%
20:00
Voelt als: 6.7°
1022.8 hPa 56.9 mm 6.6°
3
69%
23:00
Voelt als: 6.1°
1023.7 hPa 60.4 mm 6.1°
3
80%
 07:13     19:46    Daglengte: 12:33 Donderdag 19 Sep
02:00
Voelt als: 5.9°
1024.3 hPa 60.9 mm 5.9°
3
87%
05:00
Voelt als: 5.9°
1024.7 hPa 61.5 mm 5.9°
3
90%
08:00
Voelt als: 5.7°
1025.0 hPa 62.0 mm 5.8°
3
92%
11:00
Voelt als: 6.2°
1024.8 hPa 62.3 mm 6.0°
4
92%
14:00
Voelt als: 6.9°
1024.6 hPa 62.4 mm 6.0°
4
92%
17:00
Voelt als: 6.4°
1023.6 hPa 62.4 mm 6.0°
4
92%
20:00
Voelt als: 5.8°
1022.7 hPa 62.5 mm 6.0°
4
92%
23:00
Voelt als: 5.1°
1021.9 hPa 63.3 mm 5.9°
5
92%
 07:16     19:43    Daglengte: 12:27 Vrijdag 20 Sep
02:00
Voelt als: 4.6°
1020.9 hPa 63.9 mm 5.7°
6
92%
05:00
Voelt als: 5.4°
1019.0 hPa 64.0 mm 6.8°
6
92%
08:00
Voelt als: 6.2°
1017.2 hPa 64.2 mm 7.9°
6
92%
11:00
11°
1018.4 hPa 64.2 mm 8.2°
7
92%
14:00
12°
1019.6 hPa 64.2 mm 8.4°
7
92%
17:00
12°
1017.3 hPa 64.2 mm 8.9°
7
92%
20:00
11°
1015.1 hPa 64.2 mm 9.2°
7
92%
23:00
11°
1016.2 hPa 64.2 mm 8.6°
6
92%
 07:18     19:39    Daglengte: 12:21 Zaterdag 21 Sep
02:00
11°
1017.3 hPa 64.2 mm 8.1°
5
92%
05:00
11°
1015.6 hPa 64.2 mm 7.4°
5
92%
08:00
10°
Voelt als: 7.8°
1014.0 hPa 64.2 mm 6.7°
4
92%
11:00
13°
1013.3 hPa 64.2 mm 8.3°
5
92%
14:00
15°
1012.7 hPa 64.2 mm 9.7°
5
92%
17:00
15°
1012.1 hPa 64.2 mm 9.6°
4
91%
20:00
14°
1011.6 hPa 64.2 mm 9.4°
3
91%
23:00
12°
1010.5 hPa 64.2 mm 8.1°
3
91%
 07:21     19:36    Daglengte: 12:15 Zondag 22 Sep
02:00
10°
1009.4 hPa 64.2 mm 6.8°
3
90%
05:00
10°
1009.3 hPa 64.2 mm 7.2°
3
89%
08:00
11°
1009.3 hPa 64.2 mm 7.6°
3
88%
11:00
13°
1008.7 hPa 64.2 mm 8.8°
3
86%
14:00
15°
1008.1 hPa 64.2 mm 9.7°
3
83%
17:00
14°
1007.8 hPa 64.2 mm 10.1°
3
83%
20:00
13°
1007.5 hPa 128.5 mm 10.4°
2
82%
 07:24     19:33    Daglengte: 12:09 Maandag 23 Sep
02:00
11°
1003.5 hPa 128.5 mm 8.6°
4
91%
08:00
10°
1007.9 hPa 131.1 mm 8.0°
3
86%
14:00
14°
1009.2 hPa 133.9 mm 9.9°
5
85%
20:00
11°
1003.6 hPa 134.6 mm 9.9°
5
91%
 07:26     19:29    Daglengte: 12:03 Dinsdag 24 Sep
02:00
11°
1005.8 hPa 135.0 mm 9.0°
5
90%
08:00
10°
1007.4 hPa 135.0 mm 7.9°
2
91%
14:00
14°
1008.9 hPa 135.0 mm 10.9°
3
90%
20:00
12°
1007.9 hPa 135.0 mm 10.1°
2
87%
 07:29     19:26    Daglengte: 11:57 Woensdag 25 Sep
02:00
13°
1009.7 hPa 135.0 mm 6.5°
3
1%
08:00
13°
1007.7 hPa 135.0 mm 7.4°
2
1%
14:00
13°
1006.0 hPa 135.5 mm 9.4°
2
1%
20:00
11°
1008.0 hPa 1.5 mm 8.1°
2
65%
 07:32     19:23    Daglengte: 11:51 Donderdag 26 Sep
02:00
10°
1007.2 hPa 1.3 mm 7.7°
3
70%
08:00
10°
Voelt als: 7.9°
1006.6 hPa 1.5 mm 7.0°
4
66%
14:00
13°
1006.7 hPa 0.3 mm 7.7°
3
61%
20:00
11°
1006.1 hPa 1.4 mm 8.2°
2
66%
 07:34     19:19    Daglengte: 11:45 Vrijdag 27 Sep
02:00
10°
1005.7 hPa 1.4 mm 8.0°
3
69%
08:00
10°
Voelt als: 8.5°
1005.5 hPa 1.8 mm 7.2°
3
62%
14:00
13°
1005.9 hPa 1.4 mm 7.8°
2
59%
20:00
11°
1007.4 hPa 1.1 mm 7.9°
2
66%
 07:37     19:16    Daglengte: 11:39 Zaterdag 28 Sep
02:00
10°
Voelt als: 9.2°
1008.4 hPa 0.9 mm 7.4°
2
66%
08:00
Voelt als: 8.4°
1008.6 hPa 1.6 mm 6.8°
2
63%
14:00
12°
1009.0 hPa 1.5 mm 6.9°
0
57%
20:00
10°
1009.0 hPa 1.9 mm 7.2°
1
47%
 07:40     19:13    Daglengte: 11:33 Zondag 29 Sep
02:00
Voelt als: 8.5°
1009.6 hPa 1.6 mm 6.3°
0
47%
08:00
1009.1 hPa 1.0 mm 5.6°
1
46%
14:00
12°
1009.0 hPa 1.2 mm 6.0°
1
52%
20:00
10°
Voelt als: 9.3°
1009.5 hPa 1.3 mm 6.5°
1
53%
 07:42     19:09    Daglengte: 11:27 Maandag 30 Sep
02:00
Voelt als: 7.4°
1010.1 hPa 0.6 mm 6.1°
3
49%
08:00
Voelt als: 6.7°
1009.6 hPa 0.6 mm 5.6°
3
53%
14:00
12°
1010.0 hPa 1.3 mm 6.3°
2
51%
20:00
10°
Voelt als: 9.4°
1010.6 hPa 1.2 mm 6.6°
1
48%
  CAPE Lifted Index Hail Supercell Tornado SRH 3km CL BTM PRES CL TOP PRES Swiss DWD icon SMHI TS
 07:03     19:59    Daglengte: 12:56 Vandaag
21:00 157 J/kg 0.7 K 0 % 0 % 0 % 0 m²/s² 0 0 0.97 80
22:00 174 J/kg 1.2 K 0 % 0 % 0 % 0 m²/s² 0 0 1.56 61
23:00 212 J/kg 1.4 K 0 % 0 % 0 % 0 m²/s² 0 0 2.48 61
 07:05     19:56    Daglengte: 12:51 Morgen
00:00 213 J/kg 1.8 K 0 % 0 % 0 % 0 m²/s² 0 0 4.5 80
01:00 202 J/kg 2.1 K 0 % 0 % 0 % 0 m²/s² 0 0 6.63 80
02:00 180 J/kg 2.4 K 0 % 0 % 0 % 0 m²/s² 0 0 6.27 80
03:00 199 J/kg 2.4 K 0 % 0 % 0 % 0 m²/s² 0 0 4.65 80
04:00 200 J/kg 2.3 K 0 % 0 % 0 % 0 m²/s² 0 0 3.62 80
05:00 185 J/kg 2.1 K 0 % 0 % 0 % 0 m²/s² 0 0 5.22 80
06:00 201 J/kg 1.6 K 0 % 0 % 0 % 0 m²/s² 0 0 4.63 80
07:00 114 J/kg 2.2 K 0 % 0 % 0 % 0 m²/s² 0 0 9.13 80
08:00 66 J/kg 3.1 K 0 % 0 % 0 % 0 m²/s² 0 0 8.95 80
09:00 70 J/kg 3.1 K 0 % 0 % 0 % 0 m²/s² 0 0 7.69 80
10:00 92 J/kg 1.8 K 0 % 0 % 0 % 0 m²/s² 0 0 5.28 80
11:00 39 J/kg 2.6 K 0 % 0 % 0 % 0 m²/s² 0 0 5.66 3
12:00 77 J/kg 1.1 K 0 % 0 % 0 % 0 m²/s² 0 0 3.68 3
13:00 157 J/kg 0.2 K 0 % 0 % 0 % 0 m²/s² 0 0 2.24 3
14:00 371 J/kg -1.3 K 0 % 0 % 0 % 0 m²/s² 0 0 0.11 3
15:00 261 J/kg -0.8 K 0 % 0 % 0 % 0 m²/s² 0 0 0.43 61
16:00 345 J/kg -1.0 K 0 % 0 % 0 % 0 m²/s² 0 0 -0.46 61
17:00 179 J/kg -0.2 K 0 % 0 % 0 % 0 m²/s² 0 0 0.55 80
18:00 197 J/kg -0.8 K 0 % 0 % 0 % 0 m²/s² 0 0 -0.44 80
19:00 415 J/kg -1.0 K 0 % 0 % 0 % 0 m²/s² 0 0 0.11 80
20:00 377 J/kg -1.0 K 0 % 0 % 0 % 0 m²/s² 0 0 0.71 80
21:00 398 J/kg -1.3 K 0 % 0 % 0 % 0 m²/s² 0 0 -0.01 95
22:00 467 J/kg -2.0 K 0 % 0 % 0 % 0 m²/s² 0 0 -0.86 80
23:00 19 J/kg 1.2 K 0 % 0 % 0 % 0 m²/s² 0 0 2.31 80
 07:08     19:53    Daglengte: 12:45 Dinsdag 17 Sep
00:00 95 J/kg -0.2 K 0 % 0 % 0 % 0 m²/s² 0 0 0.1 80
01:00 6 J/kg 1.2 K 0 % 0 % 0 % 0 m²/s² 0 0 1.74 80
02:00 41 J/kg 0.1 K 0 % 0 % 0 % 0 m²/s² 0 0 0.82 80
03:00 71 J/kg 0.2 K 0 % 0 % 0 % 0 m²/s² 0 0 0.62 80
04:00 140 J/kg -0.4 K 0 % 0 % 0 % 0 m²/s² 0 0 0.05 80
05:00 183 J/kg -0.5 K 0 % 0 % 0 % 0 m²/s² 0 0 0.34 80
06:00 294 J/kg -0.8 K 0 % 0 % 0 % 0 m²/s² 0 0 -0.08 80
07:00 210 J/kg -0.5 K 0 % 0 % 0 % 0 m²/s² 0 0 1.54 80
08:00 318 J/kg -0.9 K 0 % 0 % 0 % 0 m²/s² 0 0 1.53 80
09:00 276 J/kg -0.5 K 0 % 0 % 0 % 0 m²/s² 0 0 0.37 2
10:00 169 J/kg -0.1 K 0 % 0 % 0 % 0 m²/s² 0 0 0.98 3
11:00 118 J/kg 0.6 K 0 % 0 % 0 % 0 m²/s² 0 0 1.8 80
12:00 108 J/kg 1.1 K 0 % 0 % 0 % 0 m²/s² 0 0 3.26 61
13:00 86 J/kg 1.8 K 0 % 0 % 0 % 0 m²/s² 0 0 4.77 80
14:00 95 J/kg 1.6 K 0 % 0 % 0 % 0 m²/s² 0 0 4.99 63
15:00 102 J/kg 1.3 K 0 % 0 % 0 % 0 m²/s² 0 0 4.75 63
16:00 177 J/kg 0.4 K 0 % 0 % 0 % 0 m²/s² 0 0 3.58 63
17:00 267 J/kg -0.2 K 0 % 0 % 0 % 0 m²/s² 0 0 2.29 80
18:00 299 J/kg -0.3 K 0 % 0 % 0 % 0 m²/s² 0 0 1.98 80
19:00 266 J/kg 0.1 K 0 % 0 % 0 % 0 m²/s² 0 0 2.56 80
20:00 208 J/kg 0.7 K 0 % 0 % 0 % 0 m²/s² 0 0 2.53 80
21:00 207 J/kg 1.1 K 0 % 0 % 0 % 0 m²/s² 0 0 2.93 80
22:00 172 J/kg 1.4 K 0 % 0 % 0 % 0 m²/s² 0 0 1.85 80
23:00 215 J/kg 1.4 K 0 % 0 % 0 % 0 m²/s² 0 0 2.33 80
 07:11     19:49    Daglengte: 12:38 Woensdag 18 Sep
00:00 240 J/kg 1.5 K 0 % 0 % 0 % 0 m²/s² 0 0 2.52 61
01:00 376 J/kg 0.8 K 0 % 0 % 0 % 0 m²/s² 0 0 2.54 61
02:00 299 J/kg 1.7 K 0 % 0 % 0 % 0 m²/s² 0 0 2.72 80
03:00 316 J/kg 1.1 K 0 % 0 % 0 % 0 m²/s² 0 0 3.08 3
04:00 234 J/kg 1.2 K 0 % 0 % 0 % 0 m²/s² 0 0 3.69 3
05:00 202 J/kg 1.4 K 0 % 0 % 0 % 0 m²/s² 0 0 2.3 80
06:00 175 J/kg 1.1 K 0 % 0 % 0 % 0 m²/s² 0 0 2.09 80
07:00 207 J/kg 0.7 K 0 % 0 % 0 % 0 m²/s² 0 0 2.02 80
08:00 240 J/kg 0.7 K 0 % 0 % 0 % 0 m²/s² 0 0 1.87 80
09:00 226 J/kg 0.8 K 0 % 0 % 0 % 0 m²/s² 0 0 1.82 80
10:00 240 J/kg 0.9 K 0 % 0 % 0 % 0 m²/s² 0 0 1.77 80
11:00 209 J/kg 1.4 K 0 % 0 % 0 % 0 m²/s² 0 0 2.84 80
12:00 244 J/kg 1.5 K 0 % 0 % 0 % 0 m²/s² 0 0 3.15 80
13:00 260 J/kg 1.4 K 0 % 0 % 0 % 0 m²/s² 0 0 3.05 80
14:00 266 J/kg 1.6 K 0 % 0 % 0 % 0 m²/s² 0 0 3.55 80
15:00 303 J/kg 1.2 K 0 % 0 % 0 % 0 m²/s² 0 0 2.76 80
16:00 360 J/kg 0.0 K 0 % 0 % 0 % 0 m²/s² 0 0 0.24 80
17:00 299 J/kg 0.6 K 0 % 0 % 0 % 0 m²/s² 0 0 1.23 80
18:00 227 J/kg 1.4 K 0 % 0 % 0 % 0 m²/s² 0 0 2.54 80
19:00 264 J/kg 1.9 K 0 % 0 % 0 % 0 m²/s² 0 0 3.28 80
20:00 304 J/kg 2.7 K 0 % 0 % 0 % 0 m²/s² 0 0 4.2 80
Temp Baro Wind Neerslag
  EWN Forecast EWN WRFDA DWD ICON FMI HIRLAM MET Norway GFS
 07:03     19:59    Daglengte: 12:56 Vandaag
23:00 10.6° 1002.8 hPa 15.1 m/s 19.7 mm 10.8° 1000.4 hPa 13.9 m/s 60.0 mm 9.7° 1002.9 hPa 12.4 m/s 14.8 mm 11.4° 1002.1 hPa 15.1 m/s 0.0 mm 10.5° 1003.0 hPa 16.3 m/s 1.0 mm 10.6° 1002.7 hPa 15.6 m/s
 07:05     19:56    Daglengte: 12:51 Morgen
02:00 10.1° 1005.5 hPa 13.4 m/s 12.8 mm 10.2° 1003.1 hPa 12.1 m/s 67.2 mm 9.2° 1005.9 hPa 10.0 m/s 4.6 mm 10.9° 1005.0 hPa 13.6 m/s 0.0 mm 9.9° 1005.7 hPa 14.0 m/s 2.1 mm 10.0° 1005.5 hPa 13.9 m/s
05:00 9.6° 1006.6 hPa 11.8 m/s 13.8 mm 9.8° 1004.4 hPa 10.9 m/s 71.8 mm 9.0° 1007.7 hPa 8.3 m/s 3.5 mm 10.2° 1006.6 hPa 11.7 m/s 0.0 mm 9.3° 1006.5 hPa 13.4 m/s 0.4 mm 9.3° 1007.3 hPa 13.1 m/s
08:00 9.3° 1007.7 hPa 10.1 m/s 10.6 mm 9.5° 1004.5 hPa 9.4 m/s 76.8 mm 8.7° 1008.6 hPa 7.4 m/s 3.1 mm 9.9° 1007.8 hPa 9.9 m/s 0.0 mm 8.9° 1007.7 hPa 10.8 m/s 1.8 mm 9.1° 1007.6 hPa 11.0 m/s
11:00 9.7° 1007.5 hPa 7.4 m/s 16.3 mm 10.4° 1004.4 hPa 7.9 m/s 77.4 mm 9.8° 1008.3 hPa 8.1 m/s 0.7 mm 11.0° 1008.3 hPa 8.1 m/s 0.0 mm 9.4° 1007.2 hPa 6.7 m/s 0.0 mm 9.3° 1007.3 hPa 9.2 m/s
14:00 10.3° 1006.0 hPa 6.9 m/s 11.0 mm 10.5° 1003.8 hPa 6.2 m/s 77.5 mm 10.3° 1007.1 hPa 7.6 m/s 0.1 mm 11.4° 1007.2 hPa 6.7 m/s 0.0 mm 9.6° 1005.6 hPa 5.9 m/s 2.5 mm 9.2° 1007.1 hPa 7.1 m/s
17:00 9.9° 1005.3 hPa 7.8 m/s 13.8 mm 10.1° 1003.1 hPa 7.4 m/s 80.5 mm 9.2° 1006.0 hPa 6.4 m/s 4.0 mm 11.1° 1006.8 hPa 9.6 m/s 0.0 mm 9.6° 1005.0 hPa 7.6 m/s 1.6 mm 9.6° 1006.6 hPa 9.0 m/s
20:00 8.7° 1005.4 hPa 6.0 m/s 17.6 mm 9.7° 1002.8 hPa 7.3 m/s 96.3 mm 8.5° 1005.6 hPa 4.6 m/s 3.2 mm 9.7° 1007.3 hPa 7.6 m/s 0.0 mm 7.6° 1005.0 hPa 5.2 m/s 0.6 mm 9.0° 1006.1 hPa 7.3 m/s
23:00 7.9° 1005.0 hPa 6.8 m/s 17.4 mm 8.0° 1003.0 hPa 5.6 m/s 101.7 mm 7.7° 1004.8 hPa 4.5 m/s 3.6 mm 9.6° 1007.1 hPa 7.6 m/s 0.0 mm 6.8° 1004.9 hPa 8.1 m/s 2.7 mm 8.6° 1006.7 hPa 5.3 m/s
 07:08     19:53    Daglengte: 12:45 Dinsdag 17 Sep
02:00 8.3° 1004.9 hPa 6.8 m/s 22.9 mm 7.7° 1003.7 hPa 6.6 m/s 114.9 mm 7.2° 1005.4 hPa 4.9 m/s 2.3 mm 8.6° 1007.8 hPa 8.1 m/s 0.0 mm 8.4° 1004.3 hPa 7.2 m/s 0.4 mm 8.0° 1007.2 hPa 5.7 m/s
05:00 7.5° 1004.6 hPa 5.3 m/s 18.0 mm 9.1° 1003.2 hPa 5.0 m/s 130.1 mm 7.0° 1005.8 hPa 3.9 m/s 1.0 mm 8.3° 1008.0 hPa 7.2 m/s 0.0 mm 5.8° 1004.0 hPa 5.1 m/s 0.0 mm 8.0° 1008.0 hPa 5.4 m/s
08:00 7.6° 1005.8 hPa 4.3 m/s 9.2 mm 9.7° 1004.9 hPa 5.3 m/s 134.0 mm 7.3° 1007.3 hPa 3.1 m/s 0.9 mm 8.8° 1007.9 hPa 6.9 m/s 0.0 mm 5.8° 1004.9 hPa 4.0 m/s 0.5 mm 7.7° 1009.6 hPa 4.9 m/s
11:00 8.5° 1008.2 hPa 6.1 m/s 17.5 mm 10.5° 1008.5 hPa 8.2 m/s 137.6 mm 8.2° 1009.3 hPa 5.3 m/s 0.5 mm 10.7° 1008.6 hPa 9.0 m/s 0.0 mm 6.6° 1006.7 hPa 5.7 m/s 4.3 mm 7.7° 1011.8 hPa 0.6 m/s
14:00 10.2° 1010.6 hPa 6.9 m/s 28.0 mm 10.8° 1011.1 hPa 6.7 m/s 138.2 mm 8.3° 1012.0 hPa 5.4 m/s 5.4 mm 10.4° 1012.4 hPa 7.8 m/s 0.0 mm 10.9° 1007.9 hPa 7.7 m/s 7.8 mm 8.3° 1013.7 hPa 0.5 m/s
17:00 10.4° 1012.2 hPa 8.9 m/s 24.5 mm 10.4° 1012.4 hPa 7.3 m/s 138.5 mm 9.7° 1012.9 hPa 7.9 m/s 11.0 mm 10.9° 1010.8 hPa 10.9 m/s 1.6 mm 9.2° 1015.6 hPa 6.1 m/s
20:00 10.1° 1013.6 hPa 8.6 m/s 26.5 mm 10.0° 1012.7 hPa 7.8 m/s 140.8 mm 9.7° 1014.8 hPa 6.1 m/s 4.2 mm 10.1° 1013.3 hPa 10.2 m/s 0.9 mm 9.2° 1017.0 hPa 5.1 m/s
23:00 9.7° 1015.2 hPa 5.2 m/s 0.0 mm 9.6° 1012.8 hPa 8.7 m/s 141.2 mm 9.3° 1016.9 hPa 1.1 m/s 4.7 mm 9.7° 1015.0 hPa 5.0 m/s 0.0 mm 8.9° 1017.8 hPa 6.2 m/s
 07:11     19:49    Daglengte: 12:38 Woensdag 18 Sep
02:00 9.3° 1016.4 hPa 3.4 m/s 27.2 mm 9.8° 1012.7 hPa 8.2 m/s 148.8 mm 9.2° 1019.5 hPa 1.7 m/s 4.3 mm 8.8° 1016.2 hPa 2.4 m/s 4.0 mm 8.7° 1019.1 hPa 3.2 m/s
05:00 9.4° 1017.9 hPa 5.6 m/s 32.7 mm 10.3° 1014.1 hPa 7.0 m/s 154.5 mm 9.2° 1021.2 hPa 2.3 m/s 1.0 mm 9.0° 1017.7 hPa 5.7 m/s 0.5 mm 8.9° 1019.5 hPa 4.7 m/s
08:00 9.4° 1019.1 hPa 6.4 m/s 21.8 mm 10.2° 1015.8 hPa 6.9 m/s 155.0 mm 8.9° 1022.2 hPa 1.9 m/s 2.7 mm 9.3° 1018.8 hPa 7.9 m/s 0.0 mm 8.9° 1020.4 hPa 4.8 m/s
11:00 9.6° 1020.4 hPa 5.7 m/s 32.7 mm 10.8° 1018.6 hPa 6.3 m/s 155.5 mm 8.9° 1024.0 hPa 2.8 m/s 3.0 mm 9.5° 1019.7 hPa 6.2 m/s 9.3° 1022.3 hPa 5.0 m/s
14:00 9.7° 1021.3 hPa 4.6 m/s 46.5 mm 10.8° 1020.1 hPa 7.2 m/s 158.0 mm 9.3° 1024.7 hPa 3.3 m/s 1.3 mm 9.7° 1020.6 hPa 4.4 m/s 9.2° 1023.7 hPa 5.2 m/s
17:00 9.2° 1022.0 hPa 3.8 m/s 55.3 mm 10.6° 1020.9 hPa 5.8 m/s 162.9 mm 9.1° 1025.0 hPa 3.2 m/s 1.5 mm 9.0° 1021.5 hPa 3.7 m/s 9.1° 1024.4 hPa 6.1 m/s
20:00 8.6° 1022.8 hPa 3.1 m/s 56.9 mm 10.0° 1022.5 hPa 6.4 m/s 167.3 mm 8.5° 1024.8 hPa 1.9 m/s 1.7 mm 8.3° 1022.4 hPa 2.9 m/s 8.9° 1025.8 hPa 5.0 m/s
23:00 7.8° 1023.7 hPa 2.8 m/s 60.4 mm 7.8° 1023.4 hPa 2.6 m/s 8.6° 1027.1 hPa 4.0 m/s 60.4 mm
 07:13     19:46    Daglengte: 12:33 Donderdag 19 Sep
02:00 7.6° 1024.3 hPa 2.6 m/s 60.9 mm 7.5° 1023.9 hPa 2.5 m/s 8.8° 1028.5 hPa 3.4 m/s 60.9 mm
05:00 7.6° 1024.7 hPa 2.6 m/s 61.5 mm 7.5° 1024.2 hPa 2.6 m/s 8.5° 1029.1 hPa 2.0 m/s 61.5 mm
08:00 7.6° 1025.0 hPa 2.8 m/s 62.0 mm 7.5° 1024.6 hPa 2.7 m/s 8.3° 1029.7 hPa 3.4 m/s 62.0 mm
11:00 8.4° 1024.8 hPa 3.6 m/s 62.3 mm 8.3° 1024.3 hPa 3.5 m/s 8.8° 1030.5 hPa 4.2 m/s 62.3 mm
14:00 9.2° 1024.6 hPa 4.3 m/s 62.4 mm 9.2° 1024.0 hPa 4.3 m/s 9.4° 1031.0 hPa 3.8 m/s 62.4 mm
17:00 8.8° 1023.6 hPa 4.2 m/s 62.4 mm 8.7° 1023.0 hPa 4.2 m/s 9.7° 1029.7 hPa 3.7 m/s 62.4 mm
20:00 8.3° 1022.7 hPa 4.2 m/s 62.5 mm 8.2° 1022.1 hPa 4.1 m/s 9.6° 1029.5 hPa 5.2 m/s 62.5 mm
23:00 8.1° 1021.9 hPa 5.2 m/s 63.3 mm 8.0° 1021.2 hPa 5.0 m/s 8.7° 1028.7 hPa 6.4 m/s 63.3 mm
 07:16     19:43    Daglengte: 12:27 Vrijdag 20 Sep
02:00 7.9° 1020.9 hPa 6.1 m/s 63.9 mm 7.8° 1020.4 hPa 6.0 m/s 9.2° 1026.9 hPa 7.2 m/s 63.9 mm
05:00 8.6° 1019.0 hPa 6.3 m/s 64.0 mm 8.5° 1018.5 hPa 6.1 m/s 10.1° 1025.1 hPa 8.4 m/s 64.0 mm
08:00 9.3° 1017.2 hPa 6.4 m/s 64.2 mm 9.2° 1016.6 hPa 6.2 m/s 10.6° 1024.1 hPa 9.1 m/s 64.2 mm
11:00 10.8° 1018.4 hPa 6.9 m/s 64.2 mm 10.6° 1018.0 hPa 6.7 m/s 12.0° 1023.5 hPa 9.4 m/s 64.2 mm
14:00 12.3° 1019.6 hPa 7.3 m/s 64.2 mm 12.1° 1019.3 hPa 7.2 m/s 14.0° 1023.0 hPa 9.0 m/s 64.2 mm
17:00 11.6° 1017.3 hPa 7.3 m/s 64.2 mm 11.3° 1016.9 hPa 7.2 m/s 14.1° 1022.0 hPa 9.2 m/s 64.2 mm
20:00 10.8° 1015.1 hPa 7.2 m/s 64.2 mm 10.6° 1014.5 hPa 7.1 m/s 13.1° 1022.2 hPa 8.2 m/s 64.2 mm
23:00 11.1° 1016.2 hPa 6.3 m/s 64.2 mm 10.9° 1015.7 hPa 6.2 m/s 12.9° 1021.9 hPa 7.6 m/s 64.2 mm
 07:18     19:39    Daglengte: 12:21 Zaterdag 21 Sep
02:00 11.4° 1017.3 hPa 5.4 m/s 64.2 mm 11.3° 1016.9 hPa 5.3 m/s 12.5° 1021.4 hPa 6.9 m/s 64.2 mm
05:00 10.6° 1015.6 hPa 4.8 m/s 64.2 mm 10.5° 1015.2 hPa 4.7 m/s 12.0° 1020.5 hPa 5.4 m/s 64.2 mm
08:00 9.9° 1014.0 hPa 4.2 m/s 64.2 mm 9.7° 1013.5 hPa 4.1 m/s 11.9° 1019.3 hPa 5.6 m/s 64.2 mm
11:00 12.6° 1013.3 hPa 4.6 m/s 64.2 mm 12.6° 1012.9 hPa 4.5 m/s 13.4° 1018.7 hPa 4.7 m/s 64.2 mm
14:00 15.3° 1012.7 hPa 4.9 m/s 64.2 mm 15.4° 1012.2 hPa 5.0 m/s 14.8° 1017.9 hPa 3.7 m/s 64.2 mm
17:00 14.6° 1012.1 hPa 3.9 m/s 64.2 mm 14.6° 1011.7 hPa 3.9 m/s 15.6° 1017.0 hPa 3.9 m/s 64.2 mm
20:00 13.7° 1011.6 hPa 2.7 m/s 64.2 mm 13.7° 1011.2 hPa 2.7 m/s 13.7° 1016.4 hPa 2.4 m/s 64.2 mm
23:00 11.9° 1010.5 hPa 2.8 m/s 64.2 mm 11.8° 1010.0 hPa 2.8 m/s 12.9° 1015.5 hPa 3.2 m/s 64.2 mm
 07:21     19:36    Daglengte: 12:15 Zondag 22 Sep
02:00 10.1° 1009.4 hPa 2.8 m/s 64.2 mm 9.9° 1008.9 hPa 2.8 m/s 12.6° 1014.3 hPa 3.3 m/s 64.2 mm
05:00 10.5° 1009.3 hPa 2.8 m/s 64.2 mm 10.2° 1009.0 hPa 2.7 m/s 12.7° 1013.0 hPa 3.7 m/s 64.2 mm
08:00 10.8° 1009.3 hPa 2.6 m/s 64.2 mm 10.6° 1009.1 hPa 2.6 m/s 12.5° 1011.7 hPa 2.2 m/s 64.2 mm
11:00 12.8° 1008.7 hPa 2.7 m/s 64.2 mm 12.8° 1008.5 hPa 2.9 m/s 13.2° 1010.9 hPa 0.2 m/s 64.2 mm
14:00 14.8° 1008.1 hPa 3.1 m/s 64.2 mm 14.9° 1007.9 hPa 3.2 m/s 13.1° 1010.0 hPa 2.0 m/s 64.2 mm
17:00 14.0° 1007.8 hPa 2.6 m/s 64.2 mm 14.1° 1007.6 hPa 2.6 m/s 13.2° 1008.9 hPa 2.1 m/s 64.2 mm
20:00 13.2° 1007.5 hPa 2.0 m/s 64.2 mm 13.2° 1007.4 hPa 2.0 m/s 12.9° 1008.2 hPa 2.3 m/s 64.2 mm
 07:24     19:33    Daglengte: 12:09 Maandag 23 Sep
02:00 10.7° 1003.5 hPa 3.8 m/s 64.2 mm 10.4° 1003.3 hPa 3.9 m/s 13.6° 1006.3 hPa 3.2 m/s 64.2 mm
08:00 10.3° 1007.9 hPa 3.0 m/s 66.4 mm 10.2° 1008.1 hPa 3.0 m/s 12.0° 1005.2 hPa 3.6 m/s 66.4 mm
14:00 14.2° 1009.2 hPa 5.0 m/s 67.0 mm 14.2° 1009.4 hPa 5.3 m/s 14.2° 1007.5 hPa 2.1 m/s 67.0 mm
20:00 11.4° 1003.6 hPa 5.1 m/s 67.4 mm 11.2° 1003.0 hPa 4.7 m/s 13.3° 1010.7 hPa 9.7 m/s 67.4 mm
 07:26     19:29    Daglengte: 12:03 Dinsdag 24 Sep
02:00 10.5° 1005.8 hPa 5.4 m/s 67.5 mm 10.4° 1005.1 hPa 5.5 m/s 12.1° 1013.8 hPa 4.1 m/s 67.5 mm
08:00 10.2° 1007.4 hPa 2.4 m/s 67.5 mm 10.0° 1006.8 hPa 2.4 m/s 11.9° 1014.1 hPa 3.0 m/s 67.5 mm
14:00 13.9° 1008.9 hPa 3.3 m/s 67.5 mm 14.0° 1008.5 hPa 3.5 m/s 13.1° 1013.7 hPa 0.9 m/s 67.5 mm
20:00 12.0° 1007.9 hPa 2.0 m/s 67.5 mm 11.9° 1007.6 hPa 2.0 m/s 13.2° 1011.7 hPa 2.3 m/s 67.5 mm
 07:29     19:26    Daglengte: 11:57 Woensdag 25 Sep
02:00 12.7° 1009.7 hPa 3.1 m/s 67.5 mm 12.7° 1009.7 hPa 3.1 m/s 67.5 mm
08:00 12.9° 1007.7 hPa 1.8 m/s 67.5 mm 12.9° 1007.7 hPa 1.8 m/s 67.5 mm <